Location: ??????????
(54.4061°N, 22.6114°E)
Time: 20:17:17
(UTC+00:00)

ATLAS 3B R/B - Pass Details

Date: 23 October 2019
Orbit: 1029 x 1166 km, 63.8° (Epoch: 10 November)

Event Time Altitude Azimuth Distance (km) Brightness Sun altitude
Rises 16:54:09 0° 185° (S) 3,818 5.7 -15.2°
Reaches altitude 10° 16:57:05 10° 176° (S) 2,852 4.9 -15.6°
Maximum altitude 17:02:48 31° 117° (ESE) 1,733 3.3 -16.4°
Enters shadow 17:05:11 25° 82° (E) 1,974 3.5 -16.8°
